Current weather by "City, St" or "zip code"  
 
Advertise Here

Current Conditions: Livermore, Livermore Municipal Airport, CA

Mostly Cloudy


50.0 F

Last Updated on Jan 27 2021, 9:53 am PST
Humidity: 77%
Wind Speed: N 0.0 mph
Barometer 29.83 in
Dewpoint: 43.0 F
Visibility: 10.00 mi
Precip: --
Heat Index: NA
Wind Chill: NA
Current conditions at:

Livermore, Livermore Municipal Airport, CA (KLVK)

Lat: 37.69278 Lon: 121.81444

Local Radar Image active severe weather and emergency alerts image image weather storm and storm spotter reports image weather observation monitoring service image
Local
Radar
Active
Alerts
Storm Reports Obs
Monitoring

Sign-up For Email & Text Message Weather Alert Notification Services


Advertise Here

Observation History for Livermore, Livermore Municipal Airport, CA


Time Wind
(mph)
Vis
(mi)
Weather Precip (in) Temperature (F) Relative
Humidity
Wind
Chill
(F)
Heat
Index
(F)
Pressure
Air Dwpt altimeter
(in)
sea level
(mb)
Rmks
9:53 am PST N 0.0 10.00 Mostly Cloudy -- 50.0 43.0 77% NA NA 29.83 1010.0
8:53 am PST S 3.5 10.00 Fair -- 50.0 41.0 71% NA NA 29.81 1009.5
7:53 am PST S 10.4 10.00 Fair -- 49.0 42.1 77% 45 NA 29.79 1008.8
6:53 am PST S 6.9 10.00 Partly Cloudy -- 50.0 42.1 74% 47 NA 29.78 1008.4
5:53 am PST S 6.9 10.00 Mostly Cloudy -- 50.0 42.1 74% 47 NA 29.75 1007.3
4:53 am PST S 11.5 G 20.7 10.00 Overcast 00.01 50.0 43.0 77% 46 NA 29.74 1006.9
3:53 am PST 10.00 Light Rain Trace 47.0 42.1 83% NA NA 29.72 1006.4
2:53 am PST S 10.4 10.00 Light Rain 00.10 50.0 43.0 77% 46 NA 29.71 1005.8
1:53 am PST S 12.7 G 20.7 2.50 Rain 00.22 49.0 44.1 83% 44 NA 29.70 1005.5
12:53 am PST S 11.5 G 17.3 6.00 Rain 00.15 49.0 43.0 80% 44 NA 29.67 1004.4
11:53 pm PST S 17.3 G 24.2 6.00 Rain 00.04 49.0 41.0 74% 43 NA 29.68 1005.1
10:53 pm PST S 18.4 G 26.5 10.00 Overcast -- 50.0 37.9 63% 44 NA 29.68 1005.0
9:53 pm PST S 19.6 G 31.1 10.00 Overcast -- 50.0 36.0 59% 44 NA 29.69 1005.4
8:53 pm PST SE 8.1 10.00 Overcast -- 46.0 37.0 71% 42 NA 29.73 1006.6
7:53 pm PST E 4.6 10.00 Overcast 00.02 44.0 37.0 76% 41 NA 29.76 1007.9
6:53 pm PST S 6.9 10.00 Light Rain -- 44.0 37.0 76% 40 NA 29.81 1009.6
5:53 pm PST S 11.5 10.00 Light Rain Trace 45.0 35.1 68% 39 NA 29.83 1010.3
4:53 pm PST S 8.1 10.00 Overcast Trace 45.0 34.0 66% 41 NA 29.86 1011.3
3:53 pm PST S 12.7 G 18.4 10.00 Light Rain Trace 47.0 35.1 63% 41 NA 29.89 1012.1
2:53 pm PST S 13.8 G 21.9 10.00 Overcast -- 50.0 30.0 46% 45 NA 29.91 1013.0
1:53 pm PST S 12.7 10.00 Overcast -- 49.0 30.9 50% 44 NA 29.93 1013.4
12:53 pm PST SW 10.4 10.00 Mostly Cloudy -- 50.0 32.0 50% 46 NA 29.95 1014.3
11:53 am PST SW 13.8 10.00 Mostly Cloudy -- 50.0 28.9 44% 45 NA 29.98 1015.1
10:53 am PST SW 9.2 10.00 Partly Cloudy -- 48.0 32.0 54% 44 NA 29.99 1015.6

Regional Weather Observation


Hayward, Hayward Air Terminal, CA (KHWD)

Partly Cloudy
52.0 F

Oakland, Metro Oakland International Airport, CA (KOAK)

Mostly Cloudy
54.0 F

Livermore, Livermore Municipal Airport, CA (KLVK)

Mostly Cloudy
50.0 F

Byron, CA (KC83)

Overcast and Windy
46.0 F

San Francisco, San Francisco International Airport, CA (KSFO)

Mostly Cloudy
54.0 F

Palo Alto Airport, CA (KPAO)

Partly Cloudy
52.0 F